CZ-3B DEB, 40184

Orbit data source: Space-Track

CZ-3B DEB, 40184 is space debris in HEO originally from a launch on Mon, 19 Dec 2011 UTC launched from the Xichang Space Center, China (XSC). Debris objects in space refer to the collection of defunct objects orbiting the Earth. Examples of debris include non-operational satellites, rocket bodies, and fragments generated from explosions, collisions, or faulty payload assembly.

Not visible in the next 10 days
Identifier
40184, 2011-077H
Orbit
HEO
Country
Flag of CNCN / PRC
Related business
Manufacturer
CALT
Mission
Spacecraft
Bus & Motor
Unknown
Mass
Unknown
Launch date (UTC)
2011-12-19 (15 years ago)
Launch vehicle
Unknown
Launch site
Xichang Space Center, China (XSC)
Object type
Payload
Rocket body
Debris
Shape & HBR
Unknown shape, 0.4 m
Radar Cross Section
Medium (>0.1 m² and <1 m²)

Expand to show TLE details & history
Last TLE update: 2 days ago

TLE from 2 days ago
0 CZ-3B DEB
1 40184U 11077H   26171.16429546  .00005168  00000-0  49226-2 0  9992
2 40184  21.2137 195.7952 7546278  86.6096 348.3032  1.93188102 80045
Epoch: 2026-06-20T03:56Z
TLE epoch observation values (Epoch: 2026-06-20T03:56:35.127Z)
Latitude
-0.00008°
Longitude
-131.65792°
Altitude
4,791.174 km
Speed
7.532 km/s
True Right ascension
13h 03m 29s
True Declination
0° 00' 00"
Sunlit
Object was in daylight at epoch
Visualization orbit readout
Latitude
Unknown
Longitude
Unknown
Altitude
Unknown
Speed
Unknown
Apparent Right ascension
Unknown
Apparent Declination
Unknown
Sunlit
N/A
Visualization observer readout
Local Sidereal Time
21:38:38
Azimuth
Unknown
Elevation
Unknown
Doppler factor
Unknown
Orbital elements
Apogee altitude
41,412.216 km
Perigee altitude
305.003 km
Semi-major axis
27,236.746 km
Eccentricity
0.75463
Inclination
21.2137°
RAAN
195.7952°
Arg. of periapsis
86.6096°
True anomaly
273.48092°
Mean anomaly
348.3032°
Eccentric anomaly
321.22608°
Mean motion
0.48285 °/min
Orbital period
745.58 mins
BSTAR
0.0049226
Loading maneuver chart data...
Computing Atmospheric mass density...
Loading historical data...
Loading historical data...
Loading historical data...
Loading historical data...
Loading historical data...
Loading historical data...
Loading historical data...

Documentation

Showing up to 5 results
|